GFSNGP_con_sbcape_000.txt.gz
CAPE
1 39 75 86 50 3 0 20 25 121 101 450 320 69 7 175 2998 2849 2919 2451 2227 2133 2242 2096 1975 2124 1922 1621 876 1507 978 1249 1212 668 905 769 1131 887 734 557 441 222 30 129
48 32 41 63 67 26 1 0 20 48 237 83 0 0 0 189 2280 2455 2405 2188 2021 2463 2098 1876 1840 1715 1935 1880 1661 1445 622 1313 1217 888 784 594 956 613 693 552 397 239 172 81
109 30 31 95 74 101 13 5 13 281 323 82 119 289 103 2508 1998 1994 1940 1736 1388 1343 1251 1213 998 1130 1331 1894 1730 1929 1019 1141 720 993 800 634 453 581 605 386 232 136 0 0
158 241 89 115 190 150 162 38 28 1207 394 47 1 425 439 2542 2118 1833 1346 1056 949 762 766 517 328 341 363 437 675 1701 1347 879 703 742 488 500 517 263 278 125 31 6 3 1
160 113 44 273 170 30 282 31 79 684 1015 147 654 875 1835 1726 1514 1056 761 510 244 65 22 7 7 4 6 192 286 707 1382 1140 546 273 318 111 207 170 42 6 0 0 0 0
295 85 32 163 209 311 301 72 935 864 1582 1392 1192 1151 1024 739 518 257 127 69 4 2 2 3 5 5 2 5 2 67 5 35 0 2 4 5 3 0 0 0 0 0 1 0
3 39 88 435 408 277 19 640 1006 1457 1387 1532 1164 1083 996 359 203 62 27 2 3 1 7 6 5 3 3 3 2 3 2 2 3 2 4 5 2 0 0 0 1 3 5 2
161 123 60 299 100 49 1461 1112 1462 1349 1003 601 337 310 192 102 33 4 4 2 1 5 7 7 6 3 3 2 3 3 3 5 7 3 7 2 1 2 2 2 2 2 1 1
647 719 958 1454 1468 1414 1204 1203 1498 1226 660 401 117 22 3 3 3 1 4 5 6 5 6 6 6 4 2 5 3 3 2 4 4 6 7 7 2 2 2 2 1 2 2 1
368 330 747 693 935 843 855 883 937 663 433 171 87 3 3 4 7 1 1 6 6 6 7 7 6 5 4 5 4 3 3 4 4 6 8 9 7 10 3 6 2 2 2 4
107 405 40 563 776 940 755 673 514 277 223 94 18 2 2 6 1 1 3 6 5 4 9 13 8 8 7 5 2 2 1 0 0 0 0 0 0 0 0 0 0 0 0 0
82 618 417 449 1134 811 634 439 333 116 10 2 1 5 4 7 3 3 6 6 6 9 10 14 12 12 14 14 9 2 0 0 0 0 0 0 0 0 0 0 0 0 0 0
308 521 671 323 259 111 286 178 148 127 42 0 3 8 4 10 7 3 5 6 6 12 16 18 19 4 6 7 9 1 0 0 0 0 0 0 0 0 0 0 0 0 0 0
132 5 165 12 253 435 308 183 148 130 85 23 6 2 8 7 5 6 9 11 12 23 16 3 12 15 15 14 3 0 0 0 0 0 0 0 0 0 0 0 0 0 0 0
0 21 70 0 534 517 485 262 77 73 91 20 10 16 12 20 7 11 11 12 3 3 1 0 0 0 0 0 0 0 0 0 0 2 1 1 4 2 0 0 0 0 0 0
12 0 13 0 100 626 621 548 226 68 94 33 14 12 7 6 4 0 0 0 0 0 0 7 4 0 0 2 4 12 3 4 1 0 0 2 5 4 4 11 20 0 0 0
77 88 271 643 468 666 646 373 187 52 28 37 41 18 14 4 0 0 0 0 0 3 61 60 58 72 56 77 61 5 0 0 0 7 11 0 0 3 5 0 13 0 0 0
77 197 370 708 867 651 452 298 200 54 21 11 9 0 0 0 0 0 0 7 30 101 82 75 53 61 84 64 78 41 5 7 11 6 0 1 8 3 5 1 4 0 0 0
166 173 234 720 946 740 526 316 146 104 33 0 0 0 0 0 0 0 0 25 59 134 165 136 35 112 192 57 44 14 31 26 15 10 5 0 0 0 4 6 4 0 0 0
162 96 195 985 1037 799 488 143 148 28 6 0 0 0 0 0 0 0 39 148 121 137 167 101 215 208 188 42 0 5 30 3 0 24 7 2 3 6 8 0 0 0 0 0
140 408 942 1003 840 649 430 160 6 0 1 0 0 0 1 2 2 65 92 78 79 90 121 42 184 74 28 1 0 0 4 15 0 32 13 14 13 18 21 0 0 0 0 0
971 925 856 723 392 165 0 0 0 0 0 2 17 26 36 43 44 76 114 54 2 0 14 0 0 0 0 0 0 0 0 0 0 6 26 16 27 9 6 0 0 0 0 0
869 551 263 67 1 0 0 0 0 6 2 17 28 25 32 69 117 54 21 0 0 0 0 0 0 0 0 0 0 0 0 0 0 0 1 5 1 5 4 2 0 0 0 0
162 40 6 2 2 0 1 0 0 0 0 0 0 9 43 54 2 0 0 0 0 0 0 0 0 0 0 0 0 0 0 0 0 0 3 1 6 6 3 0 0 0 0 0
4 3 1 1 1 2 0 0 0 0 0 1 18 65 34 73 7 0 0 0 0 0 0 0 0 0 0 0 0 1 0 0 0 0 2 3 0 0 1 0 0 0 0 0
0 0 1 3 2 1 3 1 0 1 16 28 53 3 0 0 0 0 0 0 0 0 0 0 0 0 0 0 1 0 0 0 0 0 0 0 0 0 0 0 0 0 0 0
8 10 12 24 27 8 2 7 16 41 79 78 12 0 0 0 0 0 0 0 0 0 4 2 0 0 0 0 0 0 0 0 0 0 0 0 0 0 0 0 0 0 0 0

GFSNGP_con_sbcape_006.txt.gz
CAPE
0 4 24 11 0 0 0 0 0 0 146 153 133 28 51 45 0 269 1 7 509 891 1062 1062 1177 815 263 98 154 343 484 166 105 46 45 63 33 0 0 0 0 0 0 0
0 0 17 23 0 2 8 56 0 17 190 38 7 34 79 0 69 120 41 204 1006 502 243 49 7 1 40 80 232 217 607 207 95 83 119 52 14 0 0 1 0 0 0 0
0 4 10 1 1 44 33 16 1 26 83 165 52 305 207 3 7 1 32 226 202 5 2 2 0 1 0 0 5 162 404 309 146 211 46 1 0 0 0 0 0 0 0 0
0 0 0 0 18 7 188 977 121 0 16 87 208 196 274 77 0 1 91 78 0 0 1 0 0 0 0 1 1 0 222 179 29 1 0 1 0 0 0 0 0 0 0 0
0 0 0 1 58 64 321 1045 264 80 108 208 534 710 305 238 186 95 4 0 2 0 0 0 0 0 0 0 0 0 1 25 9 0 1 0 0 0 0 0 0 0 0 0
0 7 0 0 26 66 21 478 504 120 1138 1003 1093 850 365 4 1 1 1 1 1 0 0 0 0 0 0 1 1 1 2 1 2 0 0 0 0 0 0 0 0 0 0 0
0 0 0 706 973 343 0 0 703 90 181 719 831 454 48 0 1 1 1 1 1 0 1 1 0 0 1 1 1 2 1 1 1 0 0 0 0 0 0 0 0 0 0 0
0 0 0 299 950 587 763 913 587 262 350 320 42 0 0 0 1 1 1 1 1 1 2 1 0 0 1 1 2 1 1 1 1 2 3 1 0 0 0 0 0 0 0 0
5 11 203 82 292 564 548 492 365 179 166 122 5 0 0 0 0 1 1 2 2 1 1 2 1 1 1 2 1 1 1 1 2 2 2 2 1 2 1 0 0 0 0 0
16 15 33 49 30 260 247 317 265 164 60 0 0 0 0 0 0 1 1 1 1 1 1 2 2 2 2 2 1 1 1 1 2 1 1 1 1 1 0 0 0 0 1 1
0 1 14 11 40 0 21 173 135 17 1 0 0 0 0 0 0 1 1 1 1 1 1 3 2 2 0 0 0 0 0 0 0 0 0 0 0 0 0 0 0 0 0 0
9 99 13 19 30 60 35 5 18 4 0 0 0 0 0 0 0 0 1 0 0 0 2 3 1 0 0 0 0 0 0 0 0 0 0 0 0 0 0 0 0 0 0 0
91 217 165 114 11 18 17 3 0 3 0 0 0 0 0 0 0 0 0 1 2 1 0 0 0 0 0 0 0 0 0 0 0 0 0 0 0 0 0 0 0 0 0 0
3 32 29 47 129 117 29 0 0 0 0 0 0 0 0 0 0 0 0 0 0 0 0 0 0 0 0 0 0 0 0 0 0 0 0 0 0 0 0 0 0 0 0 0
35 1 6 0 90 105 1 0 0 0 0 0 0 0 0 0 0 0 0 0 0 0 0 0 0 0 0 0 0 0 0 0 0 0 0 0 0 0 0 0 0 0 0 0
0 0 20 5 60 49 10 2 0 0 0 0 0 0 0 0 0 0 3 0 0 0 0 0 0 0 0 0 0 0 0 0 0 0 0 0 0 0 0 0 0 0 0 0
18 25 0 0 35 55 14 0 0 0 0 0 0 0 0 1 0 0 0 0 0 0 0 0 0 0 0 0 0 0 0 0 0 0 0 0 0 0 0 0 0 0 0 0
11 0 12 0 35 23 40 18 0 0 2 0 0 0 0 0 0 0 0 0 0 0 0 0 0 0 0 0 0 0 0 0 0 0 0 0 0 0 0 0 0 0 0 0
0 18 48 3 0 3 24 6 0 0 0 0 0 0 0 0 0 0 0 0 0 7 6 0 16 1 0 0 0 0 0 0 0 0 0 0 0 0 0 0 0 0 0 0
17 33 224 60 13 134 114 4 0 0 0 0 0 0 0 0 0 0 0 0 0 7 7 37 29 0 0 0 0 0 0 0 0 0 0 0 0 0 0 0 0 0 0 0
6 0 245 173 276 235 71 21 0 0 0 0 0 0 0 0 0 0 0 0 1 30 27 10 3 0 0 0 0 0 0 0 0 0 0 0 0 0 0 0 0 0 0 0
0 0 265 198 95 38 0 0 0 0 0 0 0 0 0 0 0 0 1 7 1 0 0 0 0 0 0 0 0 0 0 0 0 0 0 0 0 0 0 0 0 0 0 0
98 109 132 131 40 0 0 0 0 0 0 0 0 0 0 0 0 0 0 0 0 0 0 0 0 0 0 0 0 0 0 0 0 0 0 0 0 0 0 0 0 0 0 0
0 0 0 0 0 0 0 1 0 0 0 0 0 0 0 0 0 0 0 0 0 0 0 0 0 0 0 0 0 0 0 0 0 0 0 0 0 0 0 0 0 0 0 0
0 0 0 0 0 0 0 0 0 1 1 2 2 1 0 0 0 0 0 0 0 0 0 0 0 0 0 0 0 0 0 0 0 0 0 0 0 0 0 0 0 0 0 0
0 0 0 1 1 1 1 0 1 1 2 5 11 1 0 0 0 0 0 0 0 0 0 0 0 0 0 0 0 0 0 0 0 0 0 0 0 0 0 0 0 0 0 0
1 1 1 1 0 0 0 0 0 0 2 13 7 6 1 0 0 0 0 0 0 0 0 0 0 0 0 0 0 0 0 0 0 0 0 0 0 0 0 0 0 0 0 0

GFSNGP_con_sbcape_009.txt.gz
CAPE
0 0 0 9 23 0 0 0 0 0 0 0 14 2 218 124 360 1078 618 399 439 393 376 282 290 41 71 0 11 114 321 104 86 2 0 0 0 0 0 0 0 0 0 0
0 0 0 10 16 15 5 0 0 0 0 0 0 1 3 31 73 205 62 294 735 151 33 0 1 0 0 0 10 111 370 179 80 11 21 0 0 1 1 0 0 0 0 0
0 0 0 0 35 54 15 88 3 0 4 0 0 0 5 0 26 80 117 367 88 1 2 1 0 0 0 0 0 13 229 443 88 72 0 1 1 0 0 0 0 0 0 0
0 0 0 0 0 25 492 758 266 9 3 0 11 78 15 43 26 51 264 31 3 1 2 0 0 0 0 0 0 0 1 111 4 0 1 1 0 0 0 0 0 0 0 0
3 0 0 10 21 181 114 728 0 24 160 79 538 361 204 107 65 19 1 1 2 2 0 0 0 0 0 0 0 0 1 0 4 0 1 1 0 0 0 0 0 0 0 0
0 16 0 0 564 858 164 198 26 90 440 455 633 705 431 14 2 2 2 2 2 1 0 0 0 0 0 1 0 1 2 1 1 0 0 0 1 0 0 0 0 0 0 0
0 0 0 351 503 507 13 0 138 832 734 769 678 211 6 2 3 1 1 2 1 0 1 1 0 0 0 1 1 2 1 1 0 0 1 0 0 0 0 0 0 0 0 0
0 0 0 215 442 370 303 481 121 246 312 56 0 2 1 0 2 2 3 2 1 4 1 1 0 0 1 1 2 1 1 1 1 4 4 1 0 0 0 0 0 0 0 1
0 0 121 49 520 542 525 502 314 303 49 2 0 1 2 4 4 6 1 1 1 1 1 1 1 0 1 2 1 1 1 1 1 1 4 5 2 1 1 1 1 0 0 1
0 27 29 22 68 179 388 432 194 92 33 0 0 1 1 1 2 1 1 1 1 1 1 1 1 1 1 1 1 0 1 1 1 0 1 1 1 1 1 0 0 0 0 0
0 0 0 41 0 0 235 250 144 1 0 0 0 0 0 1 0 1 0 0 0 1 1 2 1 0 0 0 0 0 0 0 0 0 0 0 0 0 0 0 0 0 0 0
18 4 0 13 32 55 55 79 0 0 0 0 0 0 0 0 0 0 1 0 0 1 1 1 0 0 0 0 0 0 0 0 0 0 0 0 0 0 0 0 0 0 0 0
149 165 62 44 48 47 36 26 1 0 0 0 0 0 0 0 0 0 0 0 0 1 0 0 0 0 0 0 0 0 0 0 0 0 0 0 0 0 0 0 0 0 0 0
167 143 265 201 32 109 34 0 0 0 0 0 0 0 0 0 0 0 0 0 0 0 0 0 0 0 0 0 0 0 0 0 0 0 0 0 0 0 0 0 0 0 0 0
111 34 8 0 14 130 0 0 0 0 0 0 0 0 0 0 0 0 0 0 0 0 0 0 0 0 0 0 0 0 0 0 0 0 0 0 0 0 0 0 0 0 0 0
21 27 66 37 153 12 0 0 0 0 0 0 0 0 0 0 0 0 0 0 0 0 0 0 0 0 0 0 0 0 0 0 0 0 0 0 0 0 0 0 0 0 0 0
0 0 35 29 11 17 11 0 0 0 0 0 0 0 0 0 0 0 0 0 0 0 0 0 0 0 0 0 0 0 0 0 0 0 0 0 0 0 0 0 0 0 0 0
0 0 11 0 6 5 0 0 0 0 0 0 0 0 0 0 0 0 0 0 0 0 0 0 0 0 0 0 0 0 0 0 0 0 0 0 0 0 0 0 0 0 0 0
0 0 1 0 0 3 1 0 0 0 0 0 0 0 0 0 0 0 0 0 0 0 0 0 0 0 0 0 0 0 0 0 0 0 0 0 0 0 0 0 0 0 0 0
0 0 0 3 0 34 9 0 0 0 0 0 0 0 0 0 0 0 0 0 0 0 0 0 0 0 0 0 2 0 0 0 0 0 0 0 0 0 0 0 0 0 0 0
2 0 77 4 13 119 45 3 0 0 0 0 0 0 0 0 0 0 0 0 0 0 4 0 0 0 0 0 0 0 0 0 0 0 0 0 0 0 0 0 0 0 0 0
9 0 58 63 13 0 0 0 0 0 0 0 0 0 0 0 0 0 0 0 0 0 0 0 0 0 0 0 0 0 0 0 0 0 0 0 0 0 0 0 0 0 0 0
0 100 108 83 0 0 0 0 0 0 0 0 0 0 0 0 0 0 0 0 0 0 0 0 0 0 0 0 0 0 0 0 0 0 0 0 0 0 0 0 0 0 0 0
0 0 0 0 0 0 0 1 0 0 0 0 0 0 0 0 0 0 0 0 0 0 0 0 0 0 0 0 0 0 0 0 0 0 0 0 0 0 0 0 0 0 0 0
3 1 2 0 0 1 2 2 1 1 1 1 1 0 0 0 0 0 0 0 0 0 0 0 0 0 0 0 0 0 0 0 0 0 0 0 0 0 0 0 0 0 0 0
1 2 2 2 1 1 1 1 1 1 1 1 1 1 0 0 0 0 0 0 0 0 0 0 0 0 0 0 0 0 0 0 0 0 0 0 0 0 0 0 0 0 0 0
1 1 1 1 1 0 0 0 1 1 1 0 1 0 0 0 0 0 0 0 0 0 0 0 0 0 0 0 0 0 0 0 0 0 0 0 0 0 0 0 0 0 0 0

GFSNGP_con_sbcape_015.txt.gz
CAPE
0 0 0 0 85 0 9 193 131 307 12 537 409 539 1006 1874 2188 1539 806 1702 832 523 768 1348 1312 1080 852 1096 972 826 907 863 976 464 496 314 33 26 11 9 10 10 14 10
38 1 0 0 0 13 0 0 0 5 212 90 197 509 979 1692 1922 1955 1317 1536 1305 1050 1009 1120 948 781 541 557 711 713 823 901 1083 751 487 186 2 9 8 8 8 10 9 8
0 23 62 56 50 173 240 239 274 395 618 364 533 501 1135 1708 1872 1797 1543 1277 1155 735 404 228 297 185 147 109 219 528 661 897 960 773 583 98 4 7 8 8 4 5 10 9
7 99 39 2 0 158 325 814 625 1121 746 412 466 411 552 1118 1813 1699 1381 635 233 13 3 4 2 3 6 9 42 27 18 392 990 672 421 2 7 9 5 8 2 1 2 1
84 73 3 140 700 1143 915 835 1169 809 613 392 434 451 382 294 993 1097 817 121 5 5 4 2 1 2 2 0 1 2 2 2 69 342 44 6 7 5 3 3 7 2 1 1
52 23 0 102 1025 1148 1297 348 718 807 848 584 332 456 664 2 6 6 4 3 4 5 5 3 5 3 3 3 3 3 2 4 2 48 3 5 6 4 5 5 3 0 0 0
46 292 182 27 908 879 438 329 1163 899 951 686 438 417 135 6 6 3 3 3 4 2 3 5 4 3 4 3 3 4 3 3 2 1 1 1 3 3 2 1 2 0 0 0
0 2 84 612 964 583 978 1593 1158 1194 1039 855 65 7 4 5 5 5 6 5 6 4 7 7 6 5 5 4 4 4 4 4 3 2 2 1 2 4 2 3 5 2 1 1
0 0 429 586 899 794 655 723 1101 1207 799 384 5 4 4 6 7 6 5 3 4 3 8 5 5 4 5 5 5 4 4 4 4 3 2 2 3 4 3 5 5 6 1 4
406 285 489 585 676 511 691 1092 1024 938 693 198 2 4 5 4 5 5 4 5 7 8 6 7 6 4 5 4 2 2 4 4 4 4 4 2 1 3 2 1 1 1 3 5
421 349 345 456 438 486 639 453 497 554 347 44 1 4 5 7 7 5 9 8 7 5 5 5 2 2 1 1 1 1 2 2 3 3 2 2 1 1 2 2 1 2 3 6
409 212 419 360 221 334 540 314 194 170 1 1 4 4 4 5 7 9 8 7 4 3 3 1 0 0 0 0 0 0 0 0 0 0 0 0 0 0 0 0 0 0 0 0
165 139 286 342 402 332 352 290 98 77 4 1 3 0 7 5 7 3 6 4 6 2 1 2 0 0 0 0 0 0 0 0 0 0 0 0 0 0 0 0 0 0 0 0
82 162 288 260 276 284 286 107 2 2 1 4 2 4 3 4 3 4 4 3 2 5 2 0 0 0 0 0 0 0 0 0 0 0 0 0 0 0 0 0 0 0 0 0
2 157 148 130 252 273 178 122 115 38 3 4 5 3 2 3 4 4 6 7 7 1 2 0 0 0 0 0 0 0 0 0 0 0 0 0 0 0 0 0 0 0 0 0
0 120 168 195 318 312 254 26 120 64 14 1 1 2 3 4 7 5 13 8 3 6 0 0 0 0 0 0 0 0 0 0 0 0 0 0 0 0 0 0 0 0 0 0
50 280 201 128 172 391 404 345 262 170 52 3 0 2 5 7 9 12 12 5 4 2 0 0 0 0 0 0 0 0 0 0 0 0 0 0 0 0 0 0 0 0 0 0
84 37 9 0 0 22 352 415 333 224 105 25 0 0 3 4 7 9 6 6 1 0 0 0 0 0 0 0 0 0 0 0 0 0 0 0 0 0 0 0 0 0 0 0
29 100 76 64 0 0 112 522 465 277 109 6 0 0 2 7 13 5 0 0 0 0 0 0 0 0 0 0 0 0 0 0 0 0 0 0 0 0 0 0 0 0 0 0
0 82 107 133 15 1 133 325 431 265 109 35 11 4 10 17 17 0 1 1 1 0 0 0 0 0 0 0 0 0 0 0 0 0 0 0 0 0 0 0 0 0 0 0
0 10 66 110 15 20 124 228 287 344 147 65 40 8 5 9 2 4 8 4 3 0 0 0 0 0 0 0 0 0 0 0 0 3 0 0 0 0 0 0 0 0 0 0
2 2 29 50 115 363 315 356 379 298 174 96 71 39 15 7 11 7 4 7 1 0 0 0 0 0 0 0 0 0 0 0 0 0 0 0 0 0 0 0 0 0 0 0
1 5 69 257 100 54 79 113 121 130 79 30 3 14 28 13 10 7 7 0 0 0 0 0 0 0 0 0 0 0 0 0 0 0 0 0 0 0 0 0 0 2 6 9
4 5 9 2 36 31 3 18 30 36 17 18 7 8 7 4 3 1 0 0 0 0 0 0 0 0 0 0 0 0 0 0 0 0 0 0 0 0 0 0 0 0 0 0
7 10 33 9 1 3 1 9 6 8 5 7 5 4 3 3 3 2 0 0 0 0 0 0 0 0 0 0 0 0 0 0 0 0 0 0 0 0 0 0 0 0 0 0
6 4 2 6 7 9 5 2 7 4 3 3 3 5 7 4 2 2 3 1 0 0 0 0 0 0 0 0 0 0 0 0 0 0 0 0 1 1 0 0 0 2 7 10
5 2 4 3 2 3 2 4 3 4 5 4 3 2 1 1 0 1 0 2 2 0 0 0 0 8 19 5 0 0 0 0 0 0 0 1 0 0 0 2 5 7 7 10

GFSNGP_con_sbcape_021.txt.gz
CAPE
85 3 4 48 56 105 47 103 204 256 144 108 784 897 1493 1771 2571 2716 2818 2481 2855 2698 2255 1795 1724 1969 1855 1607 1422 1432 1414 1344 1370 1309 1119 1162 680 388 225 88 66 24 51 26
103 26 0 2 0 0 71 78 162 211 182 5 998 1269 1051 2088 2676 2515 2505 2449 2822 2153 1567 1702 2301 2175 1866 1918 1794 1441 1364 1330 1723 1587 1332 1300 719 259 275 6 13 8 9 12
112 6 31 102 53 8 30 218 225 299 329 612 589 1381 1497 1956 2698 2440 2204 2426 2703 1739 1813 2243 2135 2210 2139 2067 2278 2003 2413 1794 1681 1809 1840 1414 882 347 61 9 7 9 11 13
159 114 84 180 164 189 61 38 128 238 278 303 1598 1590 1741 2022 2764 2690 2262 2622 2156 1682 2211 2516 2473 2223 2066 1701 1795 1762 1651 1482 1589 1808 1964 1693 1082 581 56 6 4 4 9 11
4 8 40 111 158 180 71 118 166 125 358 1043 1350 1732 2210 2548 2566 2808 2497 2644 2375 2154 2182 1804 1634 1518 1684 1600 1473 1281 847 277 208 569 1146 1033 1044 311 64 18 6 3 11 13
0 0 41 156 314 530 288 482 418 878 867 888 1052 222 2480 2646 3331 3294 3034 2730 2169 1417 1059 703 368 620 956 729 389 77 2 6 9 9 116 485 410 69 53 18 12 8 10 10
0 0 0 67 1184 1096 316 949 2178 1984 1807 1230 1262 2723 2655 2553 2415 2137 1884 1273 1063 915 767 357 122 126 150 31 3 6 3 3 6 4 3 1 0 1 18 24 13 12 3 1
0 0 0 476 806 664 2400 2349 2459 2351 2094 2709 2601 1795 1485 1177 856 788 815 742 977 602 214 48 14 9 3 6 3 5 2 5 4 6 3 1 1 0 0 4 11 11 9 6
35 12 1506 1313 2125 2207 2252 2360 2579 2480 2110 2280 1595 1238 431 244 380 544 689 732 535 191 9 7 6 6 8 10 6 3 4 9 9 6 5 3 1 1 0 1 4 5 0 2
91 146 890 1182 1667 2051 2082 2334 2374 2284 2159 1721 1571 811 306 108 117 162 315 284 78 49 7 7 8 8 8 7 6 8 8 8 7 6 4 4 4 4 2 1 3 1 2 8
109 1062 796 1381 1416 1559 1860 2007 2151 2212 2022 1884 1364 590 285 27 19 6 7 8 4 4 9 3 4 8 7 6 7 9 8 5 4 1 1 2 3 4 4 2 1 3 6 5
486 767 925 1171 1257 1309 1497 1681 1832 1681 1361 1303 843 435 92 37 8 10 14 10 11 8 7 10 7 9 8 6 5 8 6 3 0 0 0 0 0 0 0 0 0 0 0 0
137 381 717 886 967 1017 1247 1228 1412 1317 1030 763 292 80 32 9 13 9 11 10 8 7 5 6 11 11 8 10 11 5 0 0 0 0 0 0 0 0 0 0 0 0 0 0
48 120 535 365 508 641 957 986 714 818 418 234 194 99 10 17 6 7 2 6 9 10 12 9 10 10 7 12 11 8 0 0 0 0 0 0 1 6 2 4 0 0 0 0
51 92 111 272 297 418 515 723 771 722 351 227 201 122 19 11 9 6 4 10 4 7 8 6 8 8 10 5 0 0 0 0 0 0 0 0 0 0 0 0 0 0 0 0
62 78 124 130 170 194 205 425 583 507 399 255 273 183 213 124 20 6 3 7 9 9 5 7 11 4 0 0 0 0 0 0 0 0 0 0 0 0 0 0 0 0 0 0
98 109 77 231 211 62 67 116 427 450 536 526 434 229 128 31 16 12 8 6 6 5 13 13 1 0 0 0 0 0 0 0 0 0 0 0 0 0 0 0 0 0 0 0
147 150 151 205 193 152 19 1 21 553 531 471 204 93 132 48 15 15 16 14 12 11 5 0 0 0 0 0 0 0 0 0 0 0 0 1 0 2 3 1 0 0 0 0
89 139 152 166 225 241 183 85 89 393 652 370 226 227 157 113 110 35 9 10 15 4 0 0 0 0 0 0 0 0 1 2 2 10 10 0 13 22 22 21 16 9 4 0
141 162 171 205 222 253 261 106 173 191 310 602 435 433 301 196 154 54 59 37 9 0 0 0 0 0 0 0 0 1 11 14 21 21 16 31 40 45 26 2 20 18 24 23
197 305 326 364 373 346 393 312 137 675 560 748 666 658 407 169 108 74 73 20 18 0 0 0 0 10 11 0 0 5 33 28 60 59 36 10 14 41 7 22 14 32 26 36
320 403 471 504 651 729 700 407 217 422 594 917 613 540 311 144 168 79 150 5 0 0 0 0 14 0 0 0 25 10 26 40 9 16 20 21 3 12 12 12 13 24 48 40
102 374 562 660 832 897 824 752 683 917 914 841 741 375 425 239 316 163 61 90 12 0 17 3 0 0 0 14 2 0 0 0 2 3 1 0 0 14 14 16 3 5 17 32
59 362 519 1017 1202 1190 1198 1149 1162 1137 1037 826 644 540 574 638 56 4 0 0 0 0 0 0 0 0 0 0 0 0 0 0 0 0 0 0 0 6 10 15 13 17 19 9
147 419 539 632 589 568 426 195 71 18 9 37 10 9 3 0 1 0 0 0 0 0 0 0 0 0 0 0 0 0 0 0 0 0 0 3 9 11 11 12 15 21 26 37
189 280 242 201 171 195 154 116 12 6 5 5 5 4 5 2 3 5 3 7 2 0 3 2 0 0 0 0 0 0 0 1 0 11 2 19 22 28 32 28 30 31 31 18
31 164 334 29 82 51 14 5 10 18 9 5 3 5 4 4 1 1 0 3 3 2 6 4 0 0 0 6 5 7 19 7 0 0 7 13 16 18 22 19 21 8 1 2

GFSNGP_con_sbcape_024.txt.gz
CAPE
20 8 27 87 147 82 29 34 99 149 242 188 126 60 53 488 3323 3199 3211 2952 3124 2989 3180 2522 2542 2446 2206 1715 1913 2162 2298 1893 2526 1593 1592 1392 1007 875 626 399 15 91 105 39
59 92 54 16 2 0 7 22 103 30 158 219 122 9 8 304 2872 3548 3385 3002 3164 3103 2425 2287 2075 2569 2730 2641 2471 2568 2331 1645 2535 1917 1844 1336 1114 707 528 77 5 173 34 6
131 106 83 62 0 4 10 8 2 114 461 348 204 141 53 2457 3070 2752 2982 3125 3257 2447 2111 2460 2515 3319 2894 3373 3203 2589 2138 2195 1918 1712 1787 1227 1053 332 359 16 3 57 27 10
324 316 98 70 61 33 181 91 1 159 529 235 0 0 0 1890 2924 2917 2718 3260 2963 2106 2272 2785 2626 2959 3021 2583 2520 2109 1739 1328 1289 1216 1726 1513 1251 637 367 12 0 0 19 12
231 88 55 21 61 113 180 158 1169 1063 714 303 105 10 2164 2073 2728 3138 2848 3552 2334 2450 2936 2450 2647 2434 2573 2156 2425 1297 678 509 169 43 312 1682 453 207 108 21 12 19 19 21
47 1 4 152 0 280 462 261 1703 600 114 0 5 13 2449 3903 3859 3690 3332 2953 2786 2633 1684 1700 1467 1763 1943 1193 412 118 10 0 2 4 2 619 417 74 12 22 5 10 4 0
0 0 0 0 12 810 649 1504 2096 913 352 231 59 100 3130 3241 2979 2883 2784 1804 1830 1323 1016 819 632 1058 578 53 0 1 1 3 3 2 2 1 0 0 5 3 9 1 2 1
19 0 0 0 300 1121 2351 2475 2243 2066 1669 3007 2524 2348 2446 1852 1745 1820 1490 1396 1071 700 347 295 465 291 1 3 7 6 4 3 3 2 2 1 0 0 0 0 0 0 3 0
112 50 1821 1807 2315 2413 2349 2377 2325 2316 2097 2247 1836 1443 1109 857 892 1206 1200 1223 421 64 7 3 56 8 7 9 6 8 7 6 4 3 2 1 1 0 0 0 0 0 0 2
332 612 1315 1646 1638 1606 1966 2098 1997 1910 2004 1778 1470 773 544 616 822 885 805 535 171 28 7 4 9 3 9 7 10 6 5 4 2 1 1 1 2 1 1 1 1 0 0 1
316 990 950 757 1153 1201 1515 1903 2145 2195 2129 1929 1250 772 522 366 398 262 295 80 53 3 7 5 9 12 6 4 4 7 5 2 1 2 1 1 1 2 3 2 1 1 0 0
899 686 1079 1030 1109 998 1164 1198 1484 1700 1676 1532 1087 778 264 125 91 96 87 10 9 14 12 8 16 7 8 11 11 10 5 1 0 0 0 0 0 0 0 0 0 0 0 0
191 98 90 835 561 695 682 1000 1341 1332 1295 765 544 303 110 16 12 4 6 4 0 2 9 11 11 7 2 6 5 12 2 0 0 0 0 0 0 0 0 0 0 0 0 0
12 17 196 384 295 276 342 601 815 895 471 283 179 147 82 25 2 0 4 5 6 7 5 12 8 4 9 7 21 15 1 0 11 10 1 0 1 0 0 0 0 0 0 0
3 0 25 34 166 122 131 260 916 925 492 239 202 149 93 25 9 3 4 4 6 4 7 7 8 10 11 5 2 0 0 0 0 0 0 0 0 0 0 0 0 0 0 0
2 0 2 5 34 121 105 191 375 735 705 433 389 268 208 193 32 9 5 10 9 12 18 14 9 14 2 0 0 0 0 0 0 0 0 0 0 0 0 0 0 0 0 0
22 11 25 64 153 199 68 92 72 124 582 541 342 398 166 102 0 10 7 9 8 22 28 18 8 0 0 0 0 0 0 0 0 0 0 0 0 0 0 0 0 0 0 0
7 12 21 20 40 88 126 79 34 248 568 349 441 305 187 108 22 3 16 13 9 15 17 11 0 0 0 0 0 0 0 0 0 0 0 0 0 0 1 0 0 0 0 0
49 51 49 52 45 51 67 59 72 40 399 414 358 320 287 79 78 33 0 5 14 0 10 0 0 0 0 0 0 0 0 0 0 4 6 0 12 20 17 37 30 31 10 0
31 40 86 67 67 101 89 113 160 292 410 415 264 327 417 386 112 44 8 8 6 9 3 0 0 0 0 0 0 0 10 18 40 4 11 20 31 41 22 1 9 13 19 40
5 30 83 69 120 148 154 146 166 269 158 256 376 639 626 466 291 127 49 14 31 0 0 0 0 0 0 0 0 6 32 42 40 30 8 22 27 10 7 11 5 9 14 33
6 0 28 121 270 323 456 390 416 401 446 330 248 296 686 554 326 125 163 17 0 0 0 0 1 3 0 0 0 0 1 0 1 4 2 6 5 13 20 36 2 0 21 45
15 14 37 200 427 624 623 536 746 264 228 432 759 714 560 290 127 17 128 0 0 0 0 0 0 0 0 0 0 0 0 0 0 0 0 0 0 0 0 5 2 7 25 4
24 8 132 293 552 861 631 321 715 604 978 1050 866 669 337 0 0 0 0 0 0 0 0 0 0 0 0 0 0 0 0 0 0 0 0 0 1 2 26 18 11 17 21 13
23 87 387 723 658 268 205 109 28 35 17 4 4 4 0 0 0 0 0 0 0 0 0 0 0 0 0 0 0 0 0 0 0 0 0 1 13 19 10 14 5 7 0 0
89 326 354 367 391 321 190 74 42 19 4 2 3 3 5 7 4 3 0 0 0 0 0 0 0 0 0 0 0 0 0 0 4 4 5 17 9 3 0 0 0 0 0 0
15 13 38 25 6 6 14 10 10 8 7 6 5 6 3 1 0 3 4 4 3 0 0 0 0 0 0 0 0 20 24 0 0 0 4 0 0 0 0 0 0 0 0 0

GFSNGP_con_sbcape_030.txt.gz
CAPE
0 0 0 0 0 0 0 0 0 0 0 7 94 86 239 0 0 0 0 15 666 685 656 292 0 0 55 84 164 853 822 685 751 444 116 4 5 0 0 0 0 0 0 0
0 4 0 0 0 0 0 118 2 4 43 18 31 1 211 70 287 245 276 1285 976 1059 745 514 383 154 72 115 584 982 1065 932 731 510 155 42 1 0 0 0 0 0 0 0
0 3 47 0 2 9 229 361 147 0 0 0 156 26 66 244 300 310 256 1645 1247 1408 1138 868 727 648 694 831 1010 1203 1124 910 737 506 253 24 0 0 0 0 0 0 0 0
104 35 21 8 39 792 681 568 333 149 24 0 29 3 96 259 129 266 144 1304 1323 1182 793 379 1124 1451 1166 1208 766 211 50 19 56 222 279 65 1 0 0 0 0 0 0 0
32 2 0 0 326 248 271 480 310 367 275 162 116 0 0 0 41 0 210 677 1334 786 637 1347 1103 453 160 30 9 0 0 0 1 0 0 229 91 0 0 0 0 0 0 0
0 0 0 0 144 286 285 253 232 214 335 221 52 35 1 0 1344 1464 1023 1062 1250 1054 868 656 28 0 0 0 1 2 1 2 0 0 0 177 47 0 0 0 0 0 0 0
0 0 0 0 0 53 29 0 119 9 46 145 52 14 0 402 888 505 477 189 108 42 27 1 0 0 0 0 1 1 0 0 0 0 1 1 0 0 0 0 0 0 0 0
0 0 0 1004 1230 378 122 281 0 18 1 59 18 213 1403 985 464 193 74 8 0 0 1 0 0 0 0 0 1 0 2 1 0 0 0 0 0 0 0 0 0 0 0 0
0 0 382 366 559 293 188 581 378 57 35 10 285 890 693 678 329 88 1 0 0 0 0 0 0 0 1 1 0 0 0 0 0 0 0 0 0 0 0 0 0 0 0 0
217 288 0 0 304 621 912 1146 1051 323 67 608 732 453 368 298 79 0 0 0 0 0 0 1 0 0 0 0 0 0 1 0 0 0 0 0 0 0 0 0 0 0 0 0
148 99 86 7 11 213 1130 1292 1186 853 641 434 254 186 229 240 179 50 0 0 0 0 0 1 0 1 0 0 0 0 0 0 0 0 0 0 0 0 0 0 0 0 0 0
109 15 190 211 0 47 306 1339 1095 888 600 402 257 156 149 119 31 0 0 0 0 0 0 0 1 0 0 0 0 0 0 0 0 0 0 0 0 0 0 0 0 0 0 0
14 9 4 105 345 137 308 1047 774 440 453 363 143 69 60 85 41 0 0 0 0 0 0 0 1 2 0 0 0 0 0 0 0 0 0 0 0 0 0 0 0 0 0 0
0 0 0 8 10 26 852 771 579 332 202 114 51 23 34 23 0 0 0 0 0 0 0 0 1 2 1 0 0 0 0 0 0 0 0 0 0 0 0 0 0 0 0 0
0 0 0 0 0 0 202 464 451 327 237 134 42 25 10 0 1 0 0 0 0 0 0 1 1 0 0 0 0 0 0 0 0 0 0 0 0 0 0 0 0 0 0 0
0 0 0 0 0 0 1 125 275 353 233 173 98 49 1 0 5 0 0 0 0 0 0 0 0 0 0 0 0 0 0 0 0 0 0 0 0 0 0 0 0 0 0 0
0 0 0 0 0 0 0 0 0 13 208 177 188 66 0 5 0 0 0 0 0 1 1 1 1 0 0 0 0 0 0 0 0 0 0 0 0 0 0 0 0 0 0 0
0 0 0 0 0 0 0 0 0 15 36 87 138 70 7 0 0 0 0 0 2 2 1 0 0 0 0 0 0 0 0 0 0 0 0 0 0 0 0 0 0 0 0 0
0 0 0 0 0 0 0 2 4 16 157 303 133 73 18 0 0 0 0 0 0 0 0 0 0 0 0 0 0 0 0 0 0 0 0 0 0 0 0 0 0 0 0 0
0 0 0 0 0 0 0 0 9 20 61 275 120 96 38 8 0 0 0 0 0 0 0 0 0 0 0 0 0 0 0 0 0 0 0 0 0 0 0 0 0 0 0 0
0 0 0 0 0 0 0 0 0 12 26 239 196 55 39 1 3 2 12 3 0 0 0 0 0 0 0 0 0 0 0 0 0 0 0 0 0 0 0 0 0 0 0 0
0 0 0 0 0 0 0 0 0 5 28 108 165 37 29 51 4 5 4 12 0 0 0 0 0 0 0 0 0 0 0 0 0 0 0 0 0 0 0 0 0 0 0 0
0 0 0 0 0 0 0 0 0 0 33 86 236 43 50 87 26 15 8 0 0 0 0 0 0 0 0 0 0 0 0 0 0 0 0 0 0 0 0 0 0 0 0 0
2 1 3 6 5 1 0 0 0 0 0 0 0 0 0 0 0 0 0 0 0 0 0 0 0 0 0 0 0 0 0 0 0 0 0 0 0 0 0 0 0 0 0 0
5 1 0 0 0 0 0 0 0 0 0 1 1 1 0 0 0 0 0 0 0 0 0 0 0 0 0 0 0 0 0 0 0 0 0 0 0 0 0 0 0 0 0 0
13 1 4 7 2 4 2 0 0 0 0 1 1 1 1 0 0 0 0 0 0 0 0 0 0 0 0 0 0 0 0 0 0 0 0 0 0 0 0 0 0 0 0 0
0 0 1 1 1 1 1 1 2 2 2 2 3 5 1 0 0 0 0 0 0 0 0 0 0 0 0 0 0 0 0 0 0 0 0 0 0 0 0 0 0 0 0 0

GFSNGP_con_sbcape_033.txt.gz
CAPE
0 0 0 0 0 0 0 0 0 0 0 0 83 126 260 1 0 35 16 39 219 809 509 445 232 108 111 9 247 387 613 428 320 104 36 21 5 0 0 0 0 0 0 0
0 0 0 0 0 0 14 189 2 0 0 0 0 67 173 3 82 255 297 263 615 665 576 383 58 1 38 6 157 399 747 550 411 83 48 44 1 0 0 0 0 0 0 0
0 2 0 0 12 121 391 317 115 1 0 2 0 40 92 36 19 74 137 196 822 8 583 216 61 40 0 1 274 828 1049 844 626 175 96 44 0 0 0 0 0 0 0 0
0 0 0 0 537 330 522 500 205 3 6 30 0 0 0 7 292 243 14 118 419 8 750 492 334 220 246 157 90 194 317 283 291 261 127 38 13 0 0 0 0 0 0 0
2 0 0 314 634 168 209 568 384 99 190 195 67 6 8 10 20 16 18 68 718 565 411 630 268 57 58 95 43 0 0 0 0 7 136 98 54 1 0 0 0 0 0 0
0 2 2 0 39 473 11 0 431 306 78 255 152 8 78 80 925 976 1011 549 435 487 555 327 55 103 291 345 37 0 0 1 2 0 0 70 150 0 0 0 0 0 0 0
0 0 0 0 362 39 0 0 370 282 117 261 148 38 28 669 458 423 236 121 139 45 42 19 0 0 53 0 0 1 0 0 0 0 1 17 1 0 0 0 0 0 0 0
0 0 0 808 1468 159 0 387 88 80 11 58 29 1083 1330 557 376 182 29 1 1 0 0 0 0 0 2 0 1 3 0 0 0 1 0 1 0 0 0 0 0 0 0 0
0 0 299 250 778 752 43 590 203 61 25 53 484 789 987 532 150 61 34 1 1 0 0 1 0 0 0 1 0 1 0 0 1 1 0 0 0 0 0 0 0 0 0 0
246 117 72 8 497 1084 1238 1401 1359 349 130 463 236 685 350 260 37 13 0 0 0 0 0 1 1 1 0 1 0 8 8 8 0 0 0 0 0 0 0 0 0 0 0 0
106 114 23 1 30 203 739 436 1142 780 355 483 526 351 256 125 15 0 0 0 0 0 0 1 1 1 1 6 1 0 2 0 0 0 0 0 0 0 0 0 0 0 0 0
61 3 34 36 4 185 888 1296 1025 785 612 541 410 219 132 70 6 0 0 0 0 0 0 0 0 0 0 0 0 0 0 0 0 0 0 0 0 0 0 0 0 0 0 0
13 0 29 224 245 111 914 1155 941 732 523 387 147 101 45 45 17 7 0 0 0 0 0 0 0 0 0 0 0 0 0 0 0 0 0 0 0 0 0 0 0 0 0 0
0 1 38 10 47 488 887 881 529 340 226 178 63 3 11 26 2 0 0 0 0 0 0 0 0 0 0 0 0 0 0 0 0 0 0 0 0 0 0 0 0 0 0 0
0 0 1 0 0 126 546 516 379 325 195 133 45 30 1 0 0 0 0 0 0 0 0 0 0 0 0 0 0 0 0 0 0 0 0 0 0 0 0 0 0 0 0 0
0 0 0 0 0 0 39 253 303 288 163 86 25 7 1 0 0 0 0 0 0 0 0 0 1 1 0 0 0 0 0 0 0 0 0 0 0 0 0 0 0 0 0 0
0 0 0 0 0 0 0 0 0 0 215 131 61 9 0 0 0 0 0 0 0 0 0 0 0 0 0 0 0 0 0 0 0 0 0 0 0 0 0 0 0 0 0 0
0 0 0 0 0 0 0 0 0 0 7 61 109 59 24 3 0 0 0 0 0 0 0 0 0 0 0 0 0 0 0 0 0 0 0 0 0 0 0 0 0 0 0 0
0 0 0 0 0 0 0 0 0 0 0 41 112 110 99 35 0 0 0 0 0 0 0 0 0 0 0 0 0 0 0 0 0 0 0 0 0 0 0 0 0 0 0 0
0 0 0 0 0 0 0 0 0 0 0 6 86 72 65 23 0 0 0 0 0 1 0 0 0 0 0 0 0 0 0 0 0 0 0 0 0 0 0 0 0 0 0 0
0 0 0 0 0 0 0 0 0 0 0 0 21 40 34 4 0 0 0 0 0 0 0 0 0 0 0 0 0 0 0 0 0 0 0 0 0 0 0 0 0 0 0 0
0 0 0 0 0 0 0 0 0 0 0 0 0 11 16 15 3 0 0 0 0 0 0 0 0 0 0 0 0 0 0 0 0 0 0 0 0 0 0 0 0 0 0 0
0 0 0 0 0 0 0 0 0 0 0 0 0 0 7 13 9 0 4 0 0 0 0 0 0 0 0 0 0 0 0 0 0 0 0 0 0 0 0 0 0 0 0 0
0 0 2 1 6 1 0 0 0 0 0 1 1 0 0 0 1 0 0 0 0 0 0 0 0 0 0 0 0 0 0 0 0 0 0 0 0 0 0 0 0 0 0 0
1 0 0 0 0 0 0 0 0 0 0 0 0 1 0 0 0 0 0 0 0 0 0 0 0 0 0 0 0 0 0 0 0 0 0 0 0 0 0 0 0 0 0 0
10 0 5 3 3 1 0 0 0 0 0 0 1 1 1 1 1 0 0 0 0 0 0 0 0 0 0 0 0 0 0 0 0 0 0 0 0 0 0 0 0 0 0 0
0 0 1 1 2 1 0 0 0 0 2 2 2 2 6 1 0 0 0 0 0 0 0 0 0 0 0 0 0 0 0 0 0 0 0 0 0 0 0 0 0 0 0 0

GFSNGP_con_sbcape_036.txt.gz
CAPE
0 0 0 0 0 0 0 0 0 0 0 0 0 1 0 0 0 1 24 14 151 527 236 121 24 47 19 0 135 282 568 479 149 74 42 12 11 0 0 0 0 0 0 0
0 0 0 0 0 0 1 0 0 0 0 0 0 0 164 8 5 103 184 202 229 232 263 29 0 0 0 1 9 227 552 594 195 116 74 19 9 0 0 0 0 0 0 0
0 0 0 0 0 42 231 230 92 1 0 0 0 13 31 66 21 57 93 139 466 580 14 0 0 0 10 1 29 172 548 512 395 163 134 30 0 0 0 0 0 0 0 0
1 0 0 0 269 132 317 401 166 6 3 5 2 0 0 0 140 71 23 25 403 537 57 97 15 0 0 133 190 274 391 659 503 278 158 32 0 0 0 0 0 0 0 0
0 0 0 415 502 122 108 212 266 67 156 207 93 3 0 0 2 1 270 51 310 514 715 100 0 36 52 112 93 83 3 21 20 184 128 59 6 0 0 0 0 0 0 0
0 0 0 0 5 214 0 0 346 101 175 245 95 0 0 58 647 742 662 205 360 524 570 562 228 92 67 58 0 0 1 2 0 0 17 101 32 0 0 0 0 0 0 0
0 0 0 0 132 172 0 0 136 308 41 113 47 0 0 444 501 341 3 34 144 66 8 1 0 15 54 0 2 2 2 1 0 1 1 0 25 0 0 0 0 0 0 0
0 0 0 438 1060 30 0 274 297 223 14 62 29 862 739 377 317 69 24 2 2 1 1 1 0 1 1 2 2 2 3 1 2 1 3 1 0 1 1 0 0 0 0 0
0 0 99 140 479 644 138 406 107 33 27 92 398 675 581 324 103 4 1 1 1 1 1 1 1 2 2 4 8 2 5 5 2 0 0 1 1 1 1 0 0 0 0 0
192 150 187 90 114 898 1060 1124 1220 66 74 347 435 762 520 120 27 0 0 0 0 0 1 1 2 1 1 7 4 2 1 1 0 0 0 0 0 0 0 0 0 0 0 0
191 181 130 35 45 10 282 913 1032 590 281 437 329 368 300 58 0 0 0 0 0 0 0 1 1 1 1 1 0 2 3 4 0 0 0 0 0 0 0 0 0 0 0 0
60 11 17 32 40 171 860 1203 1005 890 747 433 211 210 113 6 0 0 0 0 0 0 0 1 0 1 0 0 0 0 0 0 0 0 0 0 0 0 0 0 0 0 0 0
17 0 0 144 85 170 1028 1066 866 592 524 471 202 141 80 22 5 0 0 0 0 0 0 0 0 0 0 0 0 0 0 1 1 1 1 1 0 0 0 0 0 0 0 0
14 16 36 17 114 615 909 779 512 368 272 213 126 28 23 6 0 0 0 0 0 0 0 0 0 0 0 0 0 0 0 0 0 0 0 0 0 0 0 0 0 0 0 0
2 0 0 0 2 441 403 354 235 216 122 94 28 32 2 11 3 0 0 0 0 0 0 0 0 0 0 0 0 0 0 0 0 0 0 0 0 0 0 0 0 0 0 0
0 0 0 0 0 12 82 81 86 51 110 51 32 5 0 0 0 0 0 0 0 0 0 0 0 0 0 0 0 0 0 0 0 0 0 0 0 0 0 0 0 0 0 0
0 0 0 0 0 0 0 0 0 0 0 19 32 6 0 0 0 0 0 0 0 0 0 0 0 0 0 0 0 0 0 0 0 0 0 0 0 0 0 0 0 0 0 0
0 0 0 0 0 0 0 0 0 0 0 0 0 3 26 26 32 8 0 0 0 0 0 0 0 0 0 0 0 0 0 0 0 0 0 0 0 0 0 0 0 0 0 0
0 0 0 0 0 0 0 0 0 0 0 0 0 0 5 25 33 15 0 0 0 0 0 0 0 0 0 0 0 0 0 0 0 0 0 0 0 0 0 0 0 0 0 0
0 0 0 0 0 0 0 0 0 0 0 0 0 0 1 10 1 0 0 0 0 0 0 0 0 0 0 0 0 0 0 0 0 0 0 0 0 0 0 0 0 0 0 0
0 0 0 0 0 0 0 0 0 0 0 0 0 0 0 0 0 0 0 0 0 0 0 0 0 0 0 0 0 0 0 0 0 0 0 0 0 0 0 0 0 0 0 0
0 0 0 0 0 0 0 0 0 0 0 0 0 0 0 0 0 0 0 0 0 0 0 0 0 0 0 0 0 0 0 0 0 0 0 0 0 0 0 0 0 0 0 0
0 0 0 0 0 0 0 0 0 0 0 0 0 0 0 1 0 1 0 0 0 0 0 0 0 0 0 0 0 0 0 0 0 0 0 0 0 0 0 0 0 0 0 0
0 0 0 0 3 6 3 0 0 0 0 2 1 1 2 0 0 0 0 0 0 0 0 0 0 0 0 0 0 0 0 0 0 0 0 0 0 0 0 0 0 0 0 0
2 6 2 0 0 0 0 0 0 0 0 1 2 2 1 0 1 0 0 2 0 0 0 0 0 0 0 0 0 0 0 0 0 0 0 0 0 0 0 0 0 0 0 0
13 6 7 2 2 1 0 0 0 0 0 1 1 1 3 2 2 3 2 1 2 0 0 0 0 0 0 0 0 0 0 0 0 0 0 0 0 0 0 0 0 0 0 0
0 0 2 3 3 1 1 1 1 2 2 2 3 5 4 1 1 2 1 4 3 6 0 0 0 0 0 0 0 0 0 0 0 0 0 0 0 0 0 0 0 0 0 0